Location: Unspecified
(37.3333°N, 0.0000°E)
Time: 18:13:52
(UTC+00:00)

Tiangong 2 - Pass Details

Date: 31 May 2019
Orbit: 376 x 388 km, 42.8° (Epoch: 25 June)

Event Time Altitude Azimuth Distance (km) Brightness Sun altitude
Rises 19:34:51 0° 294° (WNW) 2,242 7.5 -4.4°
Reaches altitude 10° 19:36:56 10° 298° (WNW) 1,387 5.8 -4.7°
Maximum altitude 19:40:01 64° 20° (NNE) 420 1.3 -5.3°
Drops below altitude 10° 19:43:07 10° 103° (ESE) 1,378 3.3 -5.8°
Enters shadow 19:43:44 - 105° (ESE) 1,631 3.6 -5.9°
